Location: Pedholt
(56.0260°N, 10.2097°E)
Time: 01:43:52
(UTC+00:00)

Cosmos 1666 - Pass Details

Date: 14 July 2020
Orbit: 497 x 521 km, 82.5° (Epoch: 06 August)

Event Time Altitude Azimuth Distance (km) Brightness Sun altitude
Exits shadow 01:13:05 - 165° (SSE) 2,053 5.3 -9.0°
Reaches altitude 10° 01:13:56 10° 161° (SSE) 1,722 4.9 -9.0°
Maximum altitude 01:17:25 37° 93° (E) 805 3.9 -8.8°
Drops below altitude 10° 01:20:55 10° 26° (NNE) 1,724 7.1 -8.6°
Sets 01:23:08 0° 18° (NNE) 2,610 8.4 -8.4°
